User: anonymous   Login
Location: Unspecified
(0.0000°N, 0.0000°E)
Time: 07:37:39
(UTC+00:00)
Language:

DSCS III B-5 - Orbit

View from above orbital plane
View from above orbital plane
View from above satellite
View from above satellite

Ground track
Ground track

The orbit data is extracted from the following two-line orbital elements,

1 16117U 85092C   18234.71109976 0.00000000  00000-0  00000-0 0    01
2 16117  15.2441  11.0562 0001673  87.1985 272.8251  0.99328704    04
Epoch (UTC): 22 August 2018 17:03:59
Eccentricity: 0.0001673
inclination: 15.2441°
perigee height: 36045 km
apogee height: 36060 km
right ascension of ascending node: 11.0562°
argument of perigee: 87.1985°
revolutions per day: 0.99328704
mean anomaly at epoch: 272.8251°
orbit number at epoch: 0

The dashed part of the orbit path shows where the satellite is in the earth's shadow,  

DLR